Simultaneous Nadir Overpasses (SNOs) Predictions

Prediction of SNOs between GOES-17 and NOAA-19 Satellite Orbit:

Table of predicted SNOs for the next 14.0 days since TLE Epoch: 4/6/2024
Index Date Time (GOES-17) GOES-17 Lat,Lon NOAA-19 Lat,Lon Distance(km) Time Diff (sec)
1 04/06/2024 16:11:52 0.00,-104.67 0.33,-105.99 151.64 80
2 04/07/2024 16:02:18 0.01,-104.68 -0.36,-103.02 188.68 80
3 04/10/2024 04:22:05 -0.01,-104.69 -0.68,-107.74 346.68 80
4 04/11/2024 04:09:52 -0.01,-104.70 0.00,-104.76 7.23 80
5 04/12/2024 03:54:57 -0.01,-104.71 0.64,-101.78 333.41 80
6 04/14/2024 16:14:26 0.00,-104.73 0.39,-106.42 193.67 80
7 04/15/2024 16:04:53 -0.00,-104.73 -0.31,-103.45 146.54 80
8 04/16/2024 15:52:38 -0.00,-104.74 -0.96,-100.47 486.85 80
9 04/18/2024 04:24:38 0.01,-104.75 -0.80,-108.15 388.59 80
10 04/19/2024 04:12:25 0.01,-104.76 -0.10,-105.18 48.03 80
11 04/20/2024 03:57:32 0.01,-104.78 0.61,-102.21 292.65 80
